• In Deutschland
  • Länderverzeichnis
  • Für 7 Tage
  • Wassertemperatur
  • Satellitenkarten
  • Wetterkarte
  • Widgets
  • user-avatar
    Anmelden

    Stündliche Wetter Velbert

    Heute, 26 September, Mittwoch

    Zeit Temperatur Niederschläge Wind Luftdruck Luftfeuchtigkeit
    00:00 +8°C° 0 mm 2 m/S 754 mmHg 66%
    01:00 +7°C° 0 mm 2 m/S 754 mmHg 67%
    02:00 +7°C° 0 mm 2 m/S 753 mmHg 67%
    03:00 +7°C° 0 mm 2 m/S 753 mmHg 67%
    04:00 +7°C° 0 mm 2 m/S 753 mmHg 67%
    05:00 +7°C° 0 mm 2 m/S 753 mmHg 66%
    06:00 +7°C° 0 mm 2 m/S 753 mmHg 65%
    07:00 +9°C° 0 mm 2 m/S 753 mmHg 59%
    08:00 +10°C° 0 mm 2 m/S 753 mmHg 53%
    09:00 +13°C° 0 mm 2 m/S 753 mmHg 47%
    10:00 +15°C° 0 mm 2 m/S 752 mmHg 43%
    11:00 +16°C° 0 mm 2 m/S 752 mmHg 39%
    12:00 +18°C° 0 mm 2 m/S 752 mmHg 35%
    13:00 +18°C° 0 mm 2 m/S 752 mmHg 35%
    14:00 +18°C° 0 mm 2 m/S 751 mmHg 35%
    15:00 +19°C° 0 mm 2 m/S 751 mmHg 36%
    16:00 +17°C° 0 mm 2 m/S 751 mmHg 40%
    17:00 +16°C° 0 mm 2 m/S 751 mmHg 44%
    18:00 +14°C° 0 mm 1 m/S 751 mmHg 48%
    19:00 +13°C° 0 mm 1 m/S 751 mmHg 49%
    20:00 +13°C° 0 mm 1 m/S 751 mmHg 51%
    21:00 +12°C° 0 mm 1 m/S 751 mmHg 52%
    22:00 +12°C° 0 mm 1 m/S 751 mmHg 53%
    23:00 +12°C° 0 mm 1 m/S 751 mmHg 55%

    Morgen, 27 September, Donnerstag

    Zeit Temperatur Niederschläge Wind Luftdruck Luftfeuchtigkeit
    00:00 +11°C° 0 mm 1 m/S 751 mmHg 56%
    01:00 +11°C° 0 mm 1 m/S 751 mmHg 57%
    02:00 +11°C° 0 mm 1 m/S 750 mmHg 58%
    03:00 +11°C° 0 mm 1 m/S 750 mmHg 59%
    04:00 +10°C° 0 mm 1 m/S 750 mmHg 60%
    05:00 +9°C° 0 mm 2 m/S 750 mmHg 61%
    06:00 +9°C° 0 mm 2 m/S 749 mmHg 62%
    07:00 +12°C° 0 mm 2 m/S 749 mmHg 57%
    08:00 +14°C° 0 mm 2 m/S 749 mmHg 52%
    09:00 +16°C° 0 mm 2 m/S 749 mmHg 47%
    10:00 +17°C° 0 mm 2 m/S 749 mmHg 43%
    11:00 +19°C° 0 mm 2 m/S 748 mmHg 40%
    12:00 +20°C° 0 mm 3 m/S 748 mmHg 36%
    13:00 +20°C° 0 mm 3 m/S 747 mmHg 37%
    14:00 +21°C° 0 mm 3 m/S 747 mmHg 38%
    15:00 +21°C° 0 mm 3 m/S 746 mmHg 40%
    16:00 +19°C° 0 mm 3 m/S 746 mmHg 45%
    17:00 +17°C° 0 mm 2 m/S 745 mmHg 51%
    18:00 +15°C° 0 mm 2 m/S 745 mmHg 56%
    19:00 +15°C° 0 mm 2 m/S 745 mmHg 59%
    20:00 +14°C° 0 mm 2 m/S 745 mmHg 61%
    21:00 +13°C° 0 mm 1 m/S 745 mmHg 64%
    22:00 +12°C° 0 mm 1 m/S 745 mmHg 67%
    23:00 +12°C° 0 mm 1 m/S 744 mmHg 70%

    übermorgen, 28 September, Freitag

    Zeit Temperatur Niederschläge Wind Luftdruck Luftfeuchtigkeit
    00:00 +11°C° 0 mm 1 m/S 744 mmHg 73%
    01:00 +11°C° 0 mm 1 m/S 744 mmHg 76%
    02:00 +10°C° 0 mm 1 m/S 744 mmHg 78%
    03:00 +10°C° 0 mm 1 m/S 744 mmHg 81%
    04:00 +10°C° 0 mm 1 m/S 744 mmHg 83%
    05:00 +10°C° 0 mm 1 m/S 744 mmHg 85%
    06:00 +10°C° 0 mm 1 m/S 745 mmHg 86%
    07:00 +10°C° 0 mm 2 m/S 745 mmHg 83%
    08:00 +12°C° 0 mm 2 m/S 745 mmHg 80%
    09:00 +12°C° 0 mm 3 m/S 746 mmHg 76%
    10:00 +13°C° 0 mm 3 m/S 746 mmHg 72%
    11:00 +13°C° 0 mm 3 m/S 746 mmHg 68%
    12:00 +14°C° 0 mm 3 m/S 746 mmHg 63%
    13:00 +14°C° 0 mm 3 m/S 746 mmHg 60%
    14:00 +14°C° 0 mm 3 m/S 746 mmHg 57%
    15:00 +14°C° 0 mm 4 m/S 746 mmHg 54%
    16:00 +13°C° 0 mm 4 m/S 746 mmHg 57%
    17:00 +12°C° 0 mm 3 m/S 746 mmHg 60%
    18:00 +10°C° 0 mm 3 m/S 746 mmHg 63%
    19:00 +10°C° 0 mm 3 m/S 747 mmHg 66%
    20:00 +9°C° 0 mm 3 m/S 747 mmHg 69%
    21:00 +8°C° 0 mm 3 m/S 748 mmHg 73%
    22:00 +8°C° 0 mm 3 m/S 748 mmHg 74%
    23:00 +7°C° 0 mm 2 m/S 748 mmHg 76%

    29 September, Samstag

    Zeit Temperatur Niederschläge Wind Luftdruck Luftfeuchtigkeit
    00:00 +7°C° 0 mm 2 m/S 748 mmHg 78%
    01:00 +6°C° 0 mm 2 m/S 748 mmHg 80%
    02:00 +6°C° 0 mm 2 m/S 748 mmHg 81%
    03:00 +7°C° 0 mm 1 m/S 748 mmHg 82%
    04:00 +7°C° 0 mm 1 m/S 748 mmHg 83%
    05:00 +6°C° 0 mm 1 m/S 749 mmHg 83%
    06:00 +6°C° 0 mm 1 m/S 749 mmHg 83%
    07:00 +8°C° 0 mm 1 m/S 749 mmHg 75%
    08:00 +10°C° 0 mm 1 m/S 749 mmHg 67%
    09:00 +12°C° 0 mm 2 m/S 750 mmHg 58%
    10:00 +13°C° 0 mm 2 m/S 750 mmHg 54%
    11:00 +14°C° 0 mm 2 m/S 749 mmHg 50%
    12:00 +15°C° 0 mm 2 m/S 749 mmHg 45%
    13:00 +15°C° 0 mm 2 m/S 749 mmHg 46%
    14:00 +14°C° 0 mm 2 m/S 749 mmHg 46%
    15:00 +14°C° 0 mm 2 m/S 748 mmHg 47%
    16:00 +13°C° 0 mm 2 m/S 748 mmHg 52%
    17:00 +12°C° 0 mm 2 m/S 748 mmHg 57%
    18:00 +10°C° 0 mm 2 m/S 749 mmHg 62%
    19:00 +9°C° 0 mm 2 m/S 749 mmHg 64%
    20:00 +9°C° 0 mm 1 m/S 749 mmHg 66%
    21:00 +9°C° 0 mm 1 m/S 749 mmHg 68%
    22:00 +9°C° 0 mm 1 m/S 748 mmHg 69%
    23:00 +8°C° 0 mm 1 m/S 748 mmHg 70%

    30 September, Sonntag

    Zeit Temperatur Niederschläge Wind Luftdruck Luftfeuchtigkeit
    00:00 +8°C° 0 mm 1 m/S 748 mmHg 72%
    01:00 +7°C° 0 mm 1 m/S 747 mmHg 72%
    02:00 +7°C° 0 mm 1 m/S 747 mmHg 73%
    03:00 +7°C° 0 mm 1 m/S 747 mmHg 74%
    04:00 +7°C° 0 mm 1 m/S 747 mmHg 74%
    05:00 +7°C° 0 mm 1 m/S 746 mmHg 73%
    06:00 +6°C° 0 mm 1 m/S 746 mmHg 73%
    07:00 +8°C° 0 mm 1 m/S 746 mmHg 65%
    08:00 +10°C° 0 mm 1 m/S 746 mmHg 58%
    09:00 +12°C° 0 mm 1 m/S 746 mmHg 50%
    10:00 +14°C° 0 mm 1 m/S 745 mmHg 46%
    11:00 +15°C° 0 mm 1 m/S 745 mmHg 42%
    12:00 +15°C° 0 mm 0 m/S 744 mmHg 39%
    13:00 +16°C° 0 mm 1 m/S 744 mmHg 38%
    14:00 +16°C° 0 mm 1 m/S 743 mmHg 38%
    15:00 +16°C° 0 mm 1 m/S 743 mmHg 38%
    16:00 +15°C° 0 mm 1 m/S 743 mmHg 43%
    17:00 +13°C° 0 mm 1 m/S 743 mmHg 49%
    18:00 +11°C° 0 mm 1 m/S 742 mmHg 54%
    19:00 +11°C° 0 mm 1 m/S 742 mmHg 57%
    20:00 +10°C° 0 mm 1 m/S 742 mmHg 60%
    21:00 +10°C° 0 mm 1 m/S 742 mmHg 63%
    22:00 +9°C° 0 mm 1 m/S 741 mmHg 65%
    23:00 +9°C° 0 mm 1 m/S 741 mmHg 67%

    1 Oktober, Montag

    Zeit Temperatur Niederschläge Wind Luftdruck Luftfeuchtigkeit
    00:00 +8°C° 0 mm 1 m/S 741 mmHg 69%
    01:00 +7°C° 0 mm 0 m/S 740 mmHg 71%
    02:00 +7°C° 0 mm 0 m/S 740 mmHg 73%
    03:00 +6°C° 0 mm 0 m/S 739 mmHg 75%
    04:00 +6°C° 0 mm 0 m/S 739 mmHg 76%
    05:00 +7°C° 0 mm 1 m/S 739 mmHg 77%
    06:00 +7°C° 0 mm 1 m/S 738 mmHg 78%
    07:00 +8°C° 0 mm 1 m/S 738 mmHg 72%
    08:00 +9°C° 0 mm 2 m/S 738 mmHg 67%
    09:00 +12°C° 0 mm 2 m/S 737 mmHg 62%
    10:00 +12°C° 0.1 mm 2 m/S 737 mmHg 62%
    11:00 +12°C° 0.1 mm 3 m/S 736 mmHg 61%
    12:00 +12°C° 0.1 mm 3 m/S 736 mmHg 61%
    13:00 +11°C° 0.8 mm 3 m/S 736 mmHg 68%
    14:00 +11°C° 0.8 mm 3 m/S 735 mmHg 74%
    15:00 +10°C° 0.8 mm 3 m/S 735 mmHg 81%
    16:00 +9°C° 0.6 mm 2 m/S 735 mmHg 83%
    17:00 +9°C° 0.6 mm 2 m/S 735 mmHg 85%
    18:00 +8°C° 0.6 mm 2 m/S 736 mmHg 87%
    19:00 +8°C° 0.1 mm 2 m/S 736 mmHg 87%
    20:00 +8°C° 0.1 mm 3 m/S 736 mmHg 88%
    21:00 +7°C° 0.1 mm 3 m/S 737 mmHg 88%
    22:00 +6°C° 0 mm 4 m/S 737 mmHg 88%
    23:00 +6°C° 0 mm 4 m/S 738 mmHg 87%
    Mehr zeigen